Regional Weather Roundup
Issued by NWS

Home | Current Version | Previous Version | Graphics & Text | Print | Product List | Glossary On
Versions: 1 2 3 4 5 6 7 8 9 10 11 12 13 14 15 16 17 18 19 20 21 22 23 24 25 26 27 28 29 30 31 32 33 34 35 36 37 38 39 40 41 42 43 44 45 46 47 48 49 50
412
ASUS44 KJAN 311603
RWRMS

MISSISSIPPI HOURLY WEATHER ROUNDUP
NATIONAL WEATHER SERVICE JACKSON MS
1100 AM CDT FRI OCT 31 2014

NOTE: "FAIR: INDICATES FEW OR NO CLOUDS BELOW 12,000 FEET WITH NO
SIGNIFICANT WEATHER AND/OR OBSTRUCTIONS TO VISIBILITY.

MSZ001>002-007>008-010>013-018>021-025>028-034>036-311700-
NORTHWEST MISSISSIPPI

CITY           SKY/WX    TMP DP  RH WIND       PRES   REMARKS
CLARKSDALE     PTSUNNY   57  50  77 NW16      30.14R
CLEVELAND      FAIR      59  50  71 N15       30.12R
GREENWOOD      SUNNY     61  48  62 N12G22    30.09R
GREENVILLE     SUNNY     62  48  60 N21       30.12R
GRENADA        FAIR      61  48  63 N12         N/A
OLIVE BRANCH   CLOUDY    54  50  87 N14G21    30.12R
OXFORD         FAIR      57  46  67 N15G24    30.10R
TUNICA         CLOUDY    55  46  71 N22G31    30.15R
$$

MSZ003>006-009-014>017-022>024-029>033-037>039-311700-
NORTHEAST MISSISSIPPI

CITY           SKY/WX    TMP DP  RH WIND       PRES   REMARKS
COLUMBUS AFB   NOT AVBL
CORINTH        FAIR      59  50  72 NW10      30.05S
GOLDN TRIANGLE SUNNY     61  48  63 N12       30.02R
STARKVILLE     FAIR      61  50  67 N6        30.03S
TUPELO         SUNNY     60  48  64 N14       30.05R
$$

MSZ040-058-311700-
CENTRAL MISSISSIPPI

CITY           SKY/WX    TMP DP  RH WIND       PRES   REMARKS
JACKSON INTL   SUNNY     65  47  52 NW12      30.07S
JACKSON HAWKNS SUNNY     64  47  53 VRB7G20   30.08R
MERIDIAN KEY   SUNNY     66  47  50 NW12      30.01F
MERIDIAN NAS   MOSUNNY   66  48  52 NW13G18   30.01F
RAYMOND        FAIR      63  57  82 NW8       30.08S
VICKSBURG      SUNNY     65  48  54 NW10G18   30.11R
$$

MSZ059>079-311700-
SOUTH MISSISSIPPI

CITY           SKY/WX    TMP DP  RH WIND       PRES   REMARKS
BROOKHAVEN     FAIR      64  48  55 NW9       30.09S
COLUMBIA         N/A     64  50  59 MISG      30.04S
HATTIESBURG    SUNNY     66  49  54 NW7       30.03F
MCCOMB         SUNNY     65  46  50 N12       30.07S
NATCHEZ        SUNNY     63  46  55 N10       30.12S
PINE BELT      SUNNY     68  48  49 N12       30.04S
$$

MSZ080>082-311700-
COASTAL MISSISSIPPI

CITY           SKY/WX    TMP DP  RH WIND       PRES   REMARKS
BAY ST LOUIS   SUNNY     70  45  40 NW7       30.04F
BILOXI         SUNNY     70  45  40 VRB6      30.03F
PASCAGOULA     SUNNY     70  44  39 W7        30.03F
GULFPORT       SUNNY     69  45  41 W8        30.03F
$$



USA.gov is the U.S. government's official web portal to all federal, state and local government web resources and services.